Home   Weather   Germany   Bitterfeld-Wolfen   Past weeks
Flag for Germany

Past Weather in Bitterfeld-Wolfen, Saxony-Anhalt, Germany — Yesterday and Last 2 Weeks

Currently: 23 °F. Ice fog. (Weather station: Leipzig-Schkeuditz, Germany). See more current weather

Past Weather in Bitterfeld-Wolfen — Graph

°F

Bitterfeld-Wolfen Temperature Yesterday

Maximum temperature yesterday: 34 °F (at 11:20 am)
Minimum temperature yesterday: 23 °F (at 12:20 am)
Average temperature yesterday: 29 °F

High & Low Weather Summary for the Past Weeks

 TemperatureHumidityPressure
High48 °F (Feb 3, 1:50 pm)100% (Jan 23, 6:20 pm)30.77 "Hg (Jan 23, 6:20 pm)
Low18 °F (Feb 7, 3:50 am)61% (Feb 1, 2:50 pm)29.77 "Hg (Jan 30, 1:20 pm)
Average34 °F85%30.30 "Hg
* Reported Jan 23 9:20 am — Feb 7 9:20 am, Bitterfeld-Wolfen. Weather by CustomWeather, © 2023

Note: Actual official high and low records may vary slightly from our data, if they occured in-between our weather recording intervals... More about our weather records

Bitterfeld-Wolfen Weather History for the Previous 24 Hours

Scroll right to see more
 ConditionsComfort  
Time TempWeatherWind HumidityBarometerVisibility
9:20 am
Tue, Feb 7
23 °FIce fog.2 mph93%30.77 "Hg0 mi
8:50 am21 °FIce fog.2 mph100%30.77 "Hg0 mi
8:20 am23 °FIce fog.3 mph93%30.77 "Hg0 mi
7:50 am21 °FIce fog.5 mph93%30.77 "Hg0 mi
7:20 am21 °FIce fog.3 mph93%30.74 "Hg0 mi
6:50 am21 °FIce fog.5 mph93%30.74 "Hg0 mi
6:20 am21 °FIce fog.5 mph93%30.74 "Hg0 mi
5:50 am18 °FIce fog.6 mph93%30.74 "Hg1 mi
5:20 am19 °FCold.3 mph93%30.74 "Hg6 mi
4:50 am18 °FIce fog.3 mph93%30.74 "Hg4 mi
4:20 am18 °FLight fog.2 mph93%30.74 "Hg1 mi
3:50 am18 °FLight fog.2 mph100%30.74 "Hg1 mi
3:20 am19 °FLight fog.5 mph93%30.74 "Hg1 mi
2:50 am19 °FIce fog.5 mph93%30.74 "Hg0 mi
2:20 am19 °FIce fog.3 mph93%30.74 "Hg0 mi
1:50 am23 °FIce fog.5 mph93%30.74 "Hg0 mi
12:20 am23 °FIce fog.3 mph93%30.74 "Hg3 mi
11:50 pm
Mon, Feb 6
23 °FCold.5 mph93%30.74 "Hg4 mi
11:20 pm25 °FIce fog.5 mph93%30.74 "Hg3 mi
10:50 pm23 °FIce fog.5 mph100%30.74 "Hg3 mi
10:20 pm23 °FCold.6 mph93%30.74 "Hg4 mi
9:50 pm27 °FPassing clouds.6 mph93%30.74 "Hg4 mi
9:20 pm27 °FPassing clouds.6 mph93%30.74 "Hg4 mi
8:50 pm28 °FPassing clouds.9 mph93%30.72 "Hg4 mi
8:20 pm28 °FPassing clouds.8 mph93%30.72 "Hg4 mi
7:50 pm28 °FPassing clouds.9 mph86%30.72 "Hg6 mi
7:20 pm28 °FPassing clouds.10 mph93%30.72 "Hg6 mi
6:50 pm30 °FPassing clouds.9 mph86%30.72 "HgN/A
6:20 pm30 °FPartly cloudy.8 mph93%30.72 "Hg6 mi
5:50 pm30 °FMostly cloudy.9 mph93%30.69 "HgN/A
5:20 pm30 °FMostly cloudy.10 mph93%30.69 "HgN/A
4:50 pm32 °FMore clouds than sun.10 mph87%30.69 "HgN/A
4:20 pm32 °FIce fog.10 mph93%30.66 "Hg6 mi
3:50 pm32 °FPartly sunny.12 mph93%30.66 "Hg6 mi
3:20 pm32 °FLow clouds.10 mph93%30.66 "HgN/A
2:50 pm34 °FLow clouds.10 mph93%30.63 "HgN/A
2:20 pm34 °FLight snow. Low clouds.14 mph93%30.63 "Hg6 mi
1:50 pm34 °FLight snow. Low clouds.12 mph93%30.63 "Hg4 mi
1:20 pm34 °FLight snow. Fog.10 mph93%30.63 "Hg2 mi
12:50 pm34 °FLow clouds.13 mph93%30.63 "Hg4 mi
12:20 pm34 °FDrizzle. Fog.13 mph93%30.63 "Hg2 mi
11:50 am34 °FLow clouds.14 mph93%30.63 "Hg4 mi
11:20 am34 °FLow clouds.12 mph87%30.66 "Hg4 mi
10:50 am32 °FIce fog.12 mph93%30.66 "Hg3 mi
10:20 am32 °FIce fog.13 mph93%30.66 "Hg2 mi
Weather by CustomWeather, © 2023

See weather overview